"read_dt","SO2 (ppb)","flags","PMT voltage (V)","lamp voltage (V)","lamp intensity (Hz)","internal temp (C)","react chamber temp (C)","sample flow (l/min)","pres (mmHg)","SO2 bkg (ppb)","SO2 coefficient"
2014-09-11 00:00:00,1837E-3,5C000000,-0724,0825,12261,030.4,045.5,0.472,731.6,01.19,0.508
2014-09-11 00:01:00,1724E-3,5C000000,-0724,0825,12324,030.4,045.6,0.472,731.7,01.19,0.508
2014-09-11 00:02:00,1786E-3,5C000000,-0724,0826,12254,030.4,045.5,0.472,731.6,01.19,0.508
2014-09-11 00:03:00,1756E-3,5C000000,-0724,0826,12198,030.4,045.6,0.472,731.6,01.19,0.508
2014-09-11 00:04:00,1746E-3,5C000000,-0724,0825,12229,030.4,045.6,0.472,731.6,01.19,0.508
2014-09-11 00:05:00,1801E-3,5C000000,-0724,0825,12314,030.4,045.6,0.472,731.7,01.19,0.508
2014-09-11 00:06:00,1758E-3,5C000000,-0724,0826,12102,030.5,045.6,0.472,731.7,01.19,0.508
2014-09-11 00:07:00,1710E-3,5C000000,-0724,0825,12181,030.5,045.6,0.472,731.7,01.19,0.508
2014-09-11 00:08:00,1737E-3,5C000000,-0724,0826,12313,030.5,045.6,0.472,731.7,01.19,0.508
2014-09-11 00:09:00,1844E-3,5C000000,-0724,0825,12312,030.5,045.5,0.472,731.8,01.19,0.508
2014-09-11 00:10:00,1798E-3,5C000000,-0724,0826,12192,030.5,045.5,0.472,731.7,01.19,0.508
2014-09-11 00:11:00,1711E-3,5C000000,-0724,0826,12292,030.5,045.5,0.472,731.8,01.19,0.508
2014-09-11 00:12:00,1723E-3,5C000000,-0724,0825,12296,030.5,045.6,0.472,731.7,01.19,0.508
2014-09-11 00:13:00,1768E-3,5C000000,-0724,0825,12286,030.5,045.5,0.472,731.7,01.19,0.508
2014-09-11 00:14:00,1828E-3,5C000000,-0724,0826,12274,030.5,045.6,0.472,731.7,01.19,0.508
2014-09-11 00:15:00,1796E-3,5C000000,-0724,0825,12206,030.5,045.6,0.472,731.7,01.19,0.508
2014-09-11 00:16:00,1705E-3,5C000000,-0724,0825,12211,030.5,045.6,0.472,731.7,01.19,0.508
2014-09-11 00:17:00,1891E-3,5C000000,-0724,0826,12243,030.5,045.6,0.472,731.6,01.19,0.508
2014-09-11 00:18:00,1717E-3,5C000000,-0724,0825,12152,030.5,045.6,0.471,731.6,01.19,0.508
2014-09-11 00:19:00,1922E-3,5C000000,-0724,0827,12238,030.5,045.6,0.472,731.6,01.19,0.508
2014-09-11 00:20:00,1731E-3,5C000000,-0724,0825,12166,030.5,045.6,0.472,731.6,01.19,0.508
2014-09-11 00:21:00,1816E-3,5C000000,-0724,0826,12093,030.5,045.6,0.472,731.6,01.19,0.508
2014-09-11 00:22:00,1858E-3,5C000000,-0724,0825,12184,030.5,045.5,0.472,731.6,01.19,0.508
2014-09-11 00:23:00,1732E-3,5C000000,-0724,0826,12140,030.5,045.6,0.472,731.6,01.19,0.508
2014-09-11 00:24:00,1714E-3,5C000000,-0724,0825,12139,030.5,045.6,0.472,731.5,01.19,0.508
2014-09-11 00:25:00,1690E-3,5C000000,-0724,0825,12317,030.5,045.5,0.472,731.5,01.19,0.508
2014-09-11 00:26:00,1771E-3,5C000000,-0724,0826,12067,030.5,045.6,0.472,731.5,01.19,0.508
2014-09-11 00:27:00,1676E-3,5C000000,-0724,0826,12209,030.5,045.6,0.472,731.6,01.19,0.508
2014-09-11 00:28:00,1774E-3,5C000000,-0724,0826,12350,030.5,045.6,0.472,731.5,01.19,0.508
2014-09-11 00:29:00,1779E-3,5C000000,-0724,0826,12314,030.5,045.5,0.472,731.5,01.19,0.508
2014-09-11 00:30:00,1859E-3,5C000000,-0724,0825,12180,030.5,045.5,0.472,731.5,01.19,0.508
2014-09-11 00:31:00,1733E-3,5C000000,-0724,0826,12207,030.5,045.5,0.472,731.6,01.19,0.508
2014-09-11 00:32:00,1771E-3,5C000000,-0724,0827,12171,030.5,045.5,0.472,731.6,01.19,0.508
2014-09-11 00:33:00,1756E-3,5C000000,-0724,0826,12177,030.5,045.5,0.472,731.5,01.19,0.508
2014-09-11 00:34:00,1660E-3,5C000000,-0724,0826,12249,030.5,045.6,0.471,731.6,01.19,0.508
2014-09-11 00:35:00,1658E-3,5C000000,-0724,0826,12205,030.5,045.6,0.472,731.5,01.19,0.508
2014-09-11 00:36:00,1795E-3,5C000000,-0724,0826,12287,030.5,045.5,0.472,731.5,01.19,0.508
2014-09-11 00:37:00,1841E-3,5C000000,-0724,0826,12228,030.5,045.5,0.471,731.5,01.19,0.508
2014-09-11 00:38:00,1782E-3,5C000000,-0724,0825,12274,030.5,045.6,0.472,731.5,01.19,0.508
2014-09-11 00:39:00,1665E-3,5C000000,-0724,0825,12097,030.5,045.6,0.472,731.4,01.19,0.508
2014-09-11 00:40:00,1627E-3,5C000000,-0724,0826,12311,030.5,045.6,0.471,731.3,01.19,0.508
2014-09-11 00:41:00,1806E-3,5C000000,-0724,0825,12275,030.5,045.5,0.472,731.3,01.19,0.508
2014-09-11 00:42:00,1857E-3,5C000000,-0724,0826,12196,030.5,045.5,0.472,731.4,01.19,0.508
2014-09-11 00:43:00,1842E-3,5C000000,-0724,0826,12241,030.5,045.5,0.471,731.3,01.19,0.508
2014-09-11 00:44:00,1790E-3,5C000000,-0724,0826,12320,030.5,045.6,0.472,731.3,01.19,0.508
2014-09-11 00:45:00,1838E-3,5C000000,-0724,0826,12357,030.5,045.6,0.472,731.3,01.19,0.508
2014-09-11 00:46:00,1817E-3,5C000000,-0724,0825,12168,030.5,045.6,0.471,731.3,01.19,0.508
2014-09-11 00:47:00,1793E-3,5C000000,-0724,0825,12222,030.5,045.6,0.472,731.2,01.19,0.508
2014-09-11 00:48:00,1756E-3,5C000000,-0724,0826,12221,030.5,045.5,0.472,731.3,01.19,0.508
2014-09-11 00:49:00,1805E-3,5C000000,-0724,0826,12183,030.5,045.5,0.471,731.2,01.19,0.508
2014-09-11 00:50:00,1729E-3,5C000000,-0724,0826,12335,030.5,045.5,0.472,731.2,01.19,0.508
2014-09-11 00:51:00,1721E-3,5C000000,-0724,0826,12226,030.5,045.5,0.472,731.3,01.19,0.508
2014-09-11 00:52:00,1819E-3,5C000000,-0724,0826,12304,030.5,045.6,0.472,731.2,01.19,0.508
2014-09-11 00:53:00,1725E-3,5C000000,-0724,0826,12023,030.5,045.6,0.472,731.3,01.19,0.508
2014-09-11 00:54:00,1895E-3,5C000000,-0724,0825,12205,030.5,045.5,0.472,731.3,01.19,0.508
2014-09-11 00:55:00,1894E-3,5C000000,-0724,0827,12354,030.5,045.5,0.472,731.4,01.19,0.508
2014-09-11 00:56:00,1789E-3,5C000000,-0724,0825,12242,030.5,045.5,0.471,731.3,01.19,0.508
2014-09-11 00:57:00,1773E-3,5C000000,-0724,0826,12214,030.5,045.5,0.472,731.4,01.19,0.508
2014-09-11 00:58:00,1830E-3,5C000000,-0724,0825,12324,030.5,045.5,0.472,731.4,01.19,0.508
2014-09-11 00:59:00,1822E-3,5C000000,-0724,0826,12211,030.5,045.6,0.471,731.5,01.19,0.508
2014-09-11 01:00:00,1834E-3,5C000000,-0724,0826,12393,030.5,045.6,0.472,731.4,01.19,0.508
2014-09-11 01:01:00,1892E-3,5C000000,-0724,0826,12255,030.5,045.6,0.472,731.4,01.19,0.508
2014-09-11 01:02:00,1817E-3,5C000000,-0724,0825,12304,030.5,045.6,0.472,731.4,01.19,0.508
2014-09-11 01:03:00,1828E-3,5C000000,-0724,0826,12228,030.5,045.6,0.472,731.3,01.19,0.508
2014-09-11 01:04:00,1739E-3,5C000000,-0724,0826,12332,030.5,045.6,0.472,731.4,01.19,0.508
2014-09-11 01:05:00,1768E-3,5C000000,-0724,0826,12122,030.5,045.6,0.472,731.4,01.19,0.508
2014-09-11 01:06:00,1845E-3,5C000000,-0724,0826,12143,030.5,045.6,0.472,731.4,01.19,0.508
2014-09-11 01:07:00,1738E-3,5C000000,-0724,0825,12328,030.5,045.6,0.472,731.4,01.19,0.508
2014-09-11 01:08:00,1810E-3,5C000000,-0724,0825,11993,030.5,045.5,0.472,731.4,01.19,0.508
2014-09-11 01:09:00,1831E-3,5C000000,-0724,0825,12107,030.5,045.5,0.472,731.4,01.19,0.508
2014-09-11 01:10:00,1762E-3,5C000000,-0724,0826,12192,030.5,045.6,0.472,731.4,01.19,0.508
2014-09-11 01:11:00,1937E-3,5C000000,-0724,0826,12225,030.5,045.6,0.472,731.3,01.19,0.508
2014-09-11 01:12:00,1810E-3,5C000000,-0724,0826,12279,030.5,045.5,0.472,731.4,01.19,0.508
2014-09-11 01:13:00,1810E-3,5C000000,-0724,0825,12168,030.5,045.5,0.472,731.2,01.19,0.508
2014-09-11 01:14:00,1722E-3,5C000000,-0724,0825,12212,030.5,045.5,0.472,731.3,01.19,0.508
2014-09-11 01:15:00,1785E-3,5C000000,-0724,0826,12228,030.5,045.5,0.471,731.3,01.19,0.508
2014-09-11 01:16:00,1780E-3,5C000000,-0724,0826,12167,030.5,045.6,0.472,731.3,01.19,0.508
2014-09-11 01:17:00,1755E-3,5C000000,-0724,0825,12074,030.5,045.6,0.472,731.3,01.19,0.508
2014-09-11 01:18:00,1678E-3,5C000000,-0724,0826,12281,030.5,045.6,0.471,731.4,01.19,0.508
2014-09-11 01:19:00,1834E-3,5C000000,-0724,0825,12294,030.5,045.5,0.472,731.3,01.19,0.508
2014-09-11 01:20:00,1739E-3,5C000000,-0724,0825,12279,030.5,045.5,0.472,731.3,01.19,0.508
2014-09-11 01:21:00,1652E-3,5C000000,-0724,0826,12281,030.5,045.6,0.471,731.3,01.19,0.508
2014-09-11 01:22:00,1778E-3,5C000000,-0724,0826,12239,030.5,045.5,0.472,731.3,01.19,0.508
2014-09-11 01:23:00,1850E-3,5C000000,-0724,0826,12323,030.5,045.6,0.472,731.3,01.19,0.508
2014-09-11 01:24:00,1755E-3,5C000000,-0724,0826,12076,030.5,045.6,0.471,731.2,01.19,0.508
2014-09-11 01:25:00,1820E-3,5C000000,-0724,0827,12079,030.5,045.6,0.472,731.2,01.19,0.508
2014-09-11 01:26:00,1752E-3,5C000000,-0724,0826,12391,030.5,045.6,0.472,731.2,01.19,0.508
2014-09-11 01:27:00,1761E-3,5C000000,-0724,0825,12214,030.5,045.5,0.471,731.1,01.19,0.508
2014-09-11 01:28:00,1692E-3,5C000000,-0724,0826,12136,030.5,045.6,0.471,731.2,01.19,0.508
2014-09-11 01:29:00,1779E-3,5C000000,-0724,0826,12229,030.6,045.6,0.472,731.1,01.19,0.508
2014-09-11 01:30:00,1793E-3,5C000000,-0724,0826,12315,030.5,045.6,0.472,731.2,01.19,0.508
2014-09-11 01:31:00,1651E-3,5C000000,-0724,0826,12209,030.5,045.6,0.471,731.1,01.19,0.508
2014-09-11 01:32:00,1745E-3,5C000000,-0724,0827,12198,030.5,045.5,0.472,731.1,01.19,0.508
2014-09-11 01:33:00,1791E-3,5C000000,-0724,0826,12216,030.5,045.5,0.472,731.1,01.19,0.508
2014-09-11 01:34:00,1699E-3,5C000000,-0724,0826,12206,030.6,045.6,0.471,731.1,01.19,0.508
2014-09-11 01:35:00,1751E-3,5C000000,-0724,0826,12307,030.6,045.6,0.472,731.0,01.19,0.508
2014-09-11 01:36:00,1805E-3,5C000000,-0724,0826,12265,030.6,045.5,0.472,731.0,01.19,0.508
2014-09-11 01:37:00,1783E-3,5C000000,-0724,0826,12297,030.6,045.5,0.471,731.0,01.19,0.508
2014-09-11 01:38:00,1870E-3,5C000000,-0724,0826,12299,030.6,045.6,0.472,731.1,01.19,0.508
2014-09-11 01:39:00,1827E-3,5C000000,-0724,0826,12161,030.6,045.6,0.472,731.1,01.19,0.508
2014-09-11 01:40:00,1711E-3,5C000000,-0724,0826,12298,030.6,045.5,0.471,731.0,01.19,0.508
2014-09-11 01:41:00,1724E-3,5C000000,-0724,0826,12327,030.6,045.5,0.472,731.0,01.19,0.508
2014-09-11 01:42:00,1841E-3,5C000000,-0724,0826,12263,030.6,045.6,0.472,731.0,01.19,0.508
2014-09-11 01:43:00,1709E-3,5C000000,-0724,0826,12052,030.6,045.6,0.471,731.0,01.19,0.508
2014-09-11 01:44:00,1722E-3,5C000000,-0724,0826,12261,030.6,045.6,0.471,731.0,01.19,0.508
2014-09-11 01:45:00,1890E-3,5C000000,-0724,0826,12252,030.6,045.6,0.472,731.0,01.19,0.508
2014-09-11 01:46:00,1794E-3,5C000000,-0724,0826,12277,030.6,045.6,0.471,731.0,01.19,0.508
2014-09-11 01:47:00,1677E-3,5C000000,-0724,0826,12243,030.6,045.5,0.472,731.0,01.19,0.508
2014-09-11 01:48:00,1803E-3,5C000000,-0724,0826,12190,030.6,045.6,0.472,731.0,01.19,0.508
2014-09-11 01:49:00,1801E-3,5C000000,-0724,0825,12154,030.6,045.6,0.471,731.1,01.19,0.508
2014-09-11 01:50:00,1729E-3,5C000000,-0724,0826,12311,030.6,045.5,0.471,731.1,01.19,0.508
2014-09-11 01:51:00,1779E-3,5C000000,-0724,0826,12196,030.6,045.6,0.472,731.1,01.19,0.508
2014-09-11 01:52:00,1764E-3,5C000000,-0724,0825,12303,030.6,045.6,0.471,731.2,01.19,0.508
2014-09-11 01:53:00,1700E-3,5C000000,-0724,0826,12086,030.6,045.6,0.471,731.2,01.19,0.508
2014-09-11 01:54:00,1723E-3,5C000000,-0724,0826,12263,030.6,045.6,0.472,731.2,01.19,0.508
2014-09-11 01:55:00,1729E-3,5C000000,-0724,0826,12213,030.6,045.6,0.472,731.3,01.19,0.508
2014-09-11 01:56:00,1654E-3,5C000000,-0724,0826,12310,030.6,045.6,0.471,731.3,01.19,0.508
2014-09-11 01:57:00,1883E-3,5C000000,-0724,0826,12370,030.6,045.6,0.472,731.3,01.19,0.508
2014-09-11 01:58:00,1888E-3,5C000000,-0724,0826,12239,030.6,045.6,0.472,731.3,01.19,0.508
2014-09-11 01:59:00,1670E-3,5C000000,-0724,0826,12251,030.6,045.5,0.471,731.4,01.19,0.508
2014-09-11 02:00:00,1721E-3,5C000000,-0724,0826,12270,030.6,045.6,0.471,731.4,01.19,0.508
2014-09-11 02:01:00,1879E-3,5C000000,-0724,0826,12282,030.6,045.6,0.472,731.4,01.19,0.508
2014-09-11 02:02:00,1814E-3,5C000000,-0724,0826,12266,030.6,045.6,0.472,731.3,01.19,0.508
2014-09-11 02:03:00,1634E-3,5C000000,-0724,0826,12244,030.6,045.6,0.471,731.4,01.19,0.508
2014-09-11 02:04:00,1780E-3,5C000000,-0724,0826,12084,030.6,045.6,0.472,731.3,01.19,0.508
2014-09-11 02:05:00,1827E-3,5C000000,-0724,0826,12182,030.7,045.6,0.472,731.4,01.19,0.508
2014-09-11 02:06:00,1640E-3,5C000000,-0724,0825,12272,030.7,045.6,0.471,731.3,01.19,0.508
2014-09-11 02:07:00,1743E-3,5C000000,-0724,0825,12085,030.7,045.6,0.471,731.3,01.19,0.508
2014-09-11 02:08:00,1772E-3,5C000000,-0724,0826,12075,030.7,045.6,0.472,731.3,01.19,0.508
2014-09-11 02:09:00,1819E-3,5C000000,-0724,0827,12200,030.7,045.6,0.471,731.3,01.19,0.508
2014-09-11 02:10:00,1831E-3,5C000000,-0724,0826,12307,030.7,045.6,0.471,731.3,01.19,0.508
2014-09-11 02:11:00,1770E-3,5C000000,-0724,0825,12252,030.7,045.5,0.472,731.3,01.19,0.508
2014-09-11 02:12:00,1697E-3,5C000000,-0724,0826,12105,030.7,045.5,0.472,731.3,01.19,0.508
2014-09-11 02:13:00,1716E-3,5C000000,-0724,0825,12285,030.7,045.6,0.471,731.3,01.19,0.508
2014-09-11 02:14:00,1736E-3,5C000000,-0724,0825,12226,030.8,045.5,0.471,731.3,01.19,0.508
2014-09-11 02:15:00,1853E-3,5C000000,-0724,0827,12131,030.8,045.6,0.472,731.3,01.19,0.508
2014-09-11 02:16:00,1702E-3,5C000000,-0724,0826,12147,030.8,045.6,0.471,731.3,01.19,0.508
2014-09-11 02:17:00,1871E-3,5C000000,-0724,0826,12219,030.8,045.6,0.471,731.3,01.19,0.508
2014-09-11 02:18:00,1821E-3,5C000000,-0724,0826,12176,030.8,045.5,0.471,731.2,01.19,0.508
2014-09-11 02:19:00,1664E-3,5C000000,-0724,0826,12280,030.8,045.6,0.472,731.2,01.19,0.508
2014-09-11 02:20:00,1788E-3,5C000000,-0724,0825,12251,030.8,045.6,0.471,731.2,01.19,0.508
2014-09-11 02:21:00,1819E-3,5C000000,-0724,0826,12354,030.8,045.6,0.471,731.2,01.19,0.508
2014-09-11 02:22:00,1731E-3,5C000000,-0724,0825,12304,030.8,045.6,0.471,731.2,01.19,0.508
2014-09-11 02:23:00,1742E-3,5C000000,-0724,0825,12197,030.8,045.6,0.472,731.2,01.19,0.508
2014-09-11 02:24:00,1687E-3,5C000000,-0724,0825,12246,030.8,045.6,0.471,731.2,01.19,0.508
2014-09-11 02:25:00,1749E-3,5C000000,-0724,0825,12184,030.8,045.6,0.471,731.1,01.19,0.508
2014-09-11 02:26:00,1722E-3,5C000000,-0724,0827,12285,030.8,045.5,0.471,731.0,01.19,0.508
2014-09-11 02:27:00,1578E-3,5C000000,-0724,0825,12269,030.8,045.6,0.471,731.1,01.19,0.508
2014-09-11 02:28:00,1731E-3,5C000000,-0724,0826,12260,030.8,045.6,0.471,731.0,01.19,0.508
2014-09-11 02:29:00,1713E-3,5C000000,-0724,0826,12281,030.8,045.6,0.471,731.0,01.19,0.508
2014-09-11 02:30:00,1695E-3,5C000000,-0724,0826,12191,030.9,045.6,0.471,731.0,01.19,0.508
2014-09-11 02:31:00,1758E-3,5C000000,-0724,0826,12219,030.8,045.6,0.471,731.0,01.19,0.508
2014-09-11 02:32:00,1726E-3,5C000000,-0724,0826,12325,030.9,045.6,0.471,731.0,01.19,0.508
2014-09-11 02:33:00,1766E-3,5C000000,-0724,0826,12190,030.9,045.6,0.471,731.0,01.19,0.508
2014-09-11 02:34:00,1733E-3,5C000000,-0724,0826,12295,030.9,045.6,0.471,731.0,01.19,0.508
2014-09-11 02:35:00,1783E-3,5C000000,-0724,0826,12362,030.9,045.5,0.471,731.0,01.19,0.508
2014-09-11 02:36:00,1759E-3,5C000000,-0724,0826,12289,030.9,045.6,0.471,731.0,01.19,0.508
2014-09-11 02:37:00,1759E-3,5C000000,-0724,0826,12243,030.9,045.6,0.471,730.9,01.19,0.508
2014-09-11 02:38:00,1807E-3,5C000000,-0724,0826,12175,030.9,045.6,0.471,731.0,01.19,0.508
2014-09-11 02:39:00,1822E-3,5C000000,-0724,0826,12301,030.9,045.6,0.471,731.0,01.19,0.508
2014-09-11 02:40:00,1916E-3,5C000000,-0724,0827,12170,030.9,045.6,0.471,731.0,01.19,0.508
2014-09-11 02:41:00,1772E-3,5C000000,-0724,0826,12219,030.9,045.6,0.471,731.0,01.19,0.508
2014-09-11 02:42:00,1728E-3,5C000000,-0724,0826,12072,030.9,045.6,0.471,731.0,01.19,0.508
2014-09-11 02:43:00,1953E-3,5C000000,-0724,0826,12262,030.9,045.6,0.471,731.0,01.19,0.508
2014-09-11 02:44:00,1834E-3,5C000000,-0724,0826,12179,030.9,045.6,0.471,731.0,01.19,0.508
2014-09-11 02:45:00,1816E-3,5C000000,-0724,0827,12146,030.9,045.6,0.471,731.0,01.19,0.508
2014-09-11 02:46:00,1845E-3,5C000000,-0724,0827,12260,030.9,045.6,0.471,731.1,01.19,0.508
2014-09-11 02:47:00,1862E-3,5C000000,-0724,0826,12091,030.9,045.6,0.471,731.0,01.19,0.508
2014-09-11 02:48:00,1841E-3,5C000000,-0724,0825,12380,030.9,045.6,0.471,731.0,01.19,0.508
2014-09-11 02:49:00,1699E-3,5C000000,-0724,0826,12321,031.0,045.6,0.471,730.9,01.19,0.508
2014-09-11 02:50:00,1682E-3,5C000000,-0724,0827,12261,031.0,045.6,0.471,731.0,01.19,0.508
2014-09-11 02:51:00,1838E-3,5C000000,-0724,0826,12260,030.9,045.6,0.471,731.0,01.19,0.508
2014-09-11 02:52:00,1779E-3,5C000000,-0724,0826,12270,031.0,045.6,0.471,730.9,01.19,0.508
2014-09-11 02:53:00,1871E-3,5C000000,-0724,0825,12258,031.0,045.6,0.471,730.9,01.19,0.508
2014-09-11 02:54:00,1884E-3,5C000000,-0724,0826,12307,031.0,045.6,0.471,730.9,01.19,0.508
2014-09-11 02:55:00,1830E-3,5C000000,-0724,0826,12191,031.0,045.6,0.471,730.9,01.19,0.508
2014-09-11 02:56:00,1815E-3,5C000000,-0724,0825,11965,030.9,045.6,0.471,730.8,01.19,0.508
2014-09-11 02:57:00,1890E-3,5C000000,-0724,0825,12154,031.0,045.6,0.471,730.8,01.19,0.508
2014-09-11 02:58:00,1785E-3,5C000000,-0724,0826,12420,031.0,045.6,0.471,731.0,01.19,0.508
2014-09-11 02:59:00,1753E-3,5C000000,-0724,0826,12334,031.0,045.6,0.471,731.0,01.19,0.508
2014-09-11 03:00:00,1786E-3,5C000000,-0724,0826,12114,031.0,045.6,0.471,731.0,01.19,0.508
2014-09-11 03:01:00,1785E-3,5C000000,-0724,0826,12280,031.0,045.6,0.471,730.9,01.19,0.508
2014-09-11 03:02:00,1763E-3,5C000000,-0724,0825,12346,031.0,045.6,0.471,731.0,01.19,0.508
2014-09-11 03:03:00,1780E-3,5C000000,-0724,0825,12211,031.0,045.6,0.471,731.0,01.19,0.508
2014-09-11 03:04:00,1852E-3,5C000000,-0724,0826,12308,031.0,045.6,0.471,731.0,01.19,0.508
2014-09-11 03:05:00,1733E-3,5C000000,-0724,0826,12231,031.0,045.6,0.471,731.1,01.19,0.508
2014-09-11 03:06:00,1716E-3,5C000000,-0724,0826,12128,031.0,045.6,0.471,731.0,01.19,0.508
2014-09-11 03:07:00,1679E-3,5C000000,-0724,0827,12306,031.0,045.6,0.471,731.0,01.19,0.508
2014-09-11 03:08:00,1757E-3,5C000000,-0724,0827,12463,031.0,045.6,0.471,731.0,01.19,0.508
2014-09-11 03:09:00,1757E-3,5C000000,-0724,0826,12225,031.0,045.6,0.471,731.0,01.19,0.508
2014-09-11 03:10:00,1811E-3,5C000000,-0724,0827,12355,031.0,045.6,0.471,731.0,01.19,0.508
2014-09-11 03:11:00,1755E-3,5C000000,-0724,0826,12372,031.0,045.6,0.471,731.0,01.19,0.508
2014-09-11 03:12:00,1801E-3,5C000000,-0724,0827,12195,031.0,045.6,0.471,731.0,01.19,0.508
2014-09-11 03:13:00,1847E-3,5C000000,-0724,0825,12194,031.0,045.6,0.471,731.0,01.19,0.508
2014-09-11 03:14:00,1823E-3,5C000000,-0724,0826,12227,031.0,045.5,0.471,731.0,01.19,0.508
2014-09-11 03:15:00,2017E-3,5C000000,-0724,0826,12309,031.0,045.6,0.471,731.1,01.19,0.508
2014-09-11 03:16:00,1801E-3,5C000000,-0724,0826,12202,031.0,045.6,0.471,731.1,01.19,0.508
2014-09-11 03:17:00,1839E-3,5C000000,-0724,0826,12223,031.0,045.6,0.471,731.0,01.19,0.508
2014-09-11 03:18:00,1865E-3,5C000000,-0724,0826,12377,031.0,045.6,0.471,731.1,01.19,0.508
2014-09-11 03:19:00,1725E-3,5C000000,-0724,0826,12158,031.1,045.6,0.471,731.0,01.19,0.508
2014-09-11 03:20:00,1746E-3,5C000000,-0724,0826,12313,031.0,045.6,0.471,731.0,01.19,0.508
2014-09-11 03:21:00,1759E-3,5C000000,-0724,0826,12262,031.0,045.6,0.471,731.1,01.19,0.508
2014-09-11 03:22:00,1759E-3,5C000000,-0724,0826,12329,031.0,045.6,0.471,731.1,01.19,0.508
2014-09-11 03:23:00,1899E-3,5C000000,-0724,0825,12210,031.1,045.6,0.471,731.1,01.19,0.508
2014-09-11 03:24:00,1731E-3,5C000000,-0724,0827,12331,031.1,045.6,0.471,731.1,01.19,0.508
2014-09-11 03:25:00,1771E-3,5C000000,-0724,0826,12256,031.1,045.6,0.471,731.2,01.19,0.508
2014-09-11 03:26:00,1800E-3,5C000000,-0724,0826,12294,031.1,045.6,0.471,731.1,01.19,0.508
2014-09-11 03:27:00,1948E-3,5C000000,-0724,0826,12252,031.1,045.6,0.471,731.2,01.19,0.508
2014-09-11 03:28:00,1883E-3,5C000000,-0724,0826,12225,031.1,045.6,0.471,731.2,01.19,0.508
2014-09-11 03:29:00,1645E-3,5C000000,-0724,0826,12206,031.1,045.6,0.471,731.2,01.19,0.508
2014-09-11 03:30:00,1889E-3,5C000000,-0724,0825,12235,031.1,045.6,0.471,731.2,01.19,0.508
2014-09-11 03:31:00,1825E-3,5C000000,-0724,0826,12038,031.1,045.6,0.471,731.2,01.19,0.508
2014-09-11 03:32:00,1712E-3,5C000000,-0724,0826,12294,031.1,045.6,0.471,731.2,01.19,0.508
2014-09-11 03:33:00,1778E-3,5C000000,-0724,0826,12334,031.1,045.6,0.471,731.2,01.19,0.508
2014-09-11 03:34:00,1638E-3,5C000000,-0724,0826,12212,031.1,045.6,0.470,731.2,01.19,0.508
2014-09-11 03:35:00,1781E-3,5C000000,-0724,0826,12338,031.1,045.6,0.471,731.2,01.19,0.508
2014-09-11 03:36:00,1849E-3,5C000000,-0724,0826,12304,031.2,045.6,0.471,731.1,01.19,0.508
2014-09-11 03:37:00,1741E-3,5C000000,-0724,0826,12275,031.2,045.6,0.471,731.2,01.19,0.508
2014-09-11 03:38:00,1751E-3,5C000000,-0724,0826,12170,031.2,045.6,0.471,731.2,01.19,0.508
2014-09-11 03:39:00,1809E-3,5C000000,-0724,0825,12217,031.2,045.6,0.470,731.1,01.19,0.508
2014-09-11 03:40:00,1695E-3,5C000000,-0724,0826,12217,031.2,045.6,0.470,731.2,01.19,0.508
2014-09-11 03:41:00,1798E-3,5C000000,-0724,0826,12341,031.2,045.6,0.471,731.2,01.19,0.508
2014-09-11 03:42:00,1851E-3,5C000000,-0724,0826,12143,031.2,045.6,0.471,731.1,01.19,0.508
2014-09-11 03:43:00,1678E-3,5C000000,-0724,0826,12134,031.2,045.6,0.471,731.0,01.19,0.508
2014-09-11 03:44:00,1662E-3,5C000000,-0724,0825,12178,031.2,045.6,0.470,731.0,01.19,0.508
2014-09-11 03:45:00,1862E-3,5C000000,-0724,0825,12266,031.2,045.6,0.470,731.0,01.19,0.508
2014-09-11 03:46:00,1740E-3,5C000000,-0724,0826,12139,031.2,045.6,0.470,731.0,01.19,0.508
2014-09-11 03:47:00,1861E-3,5C000000,-0724,0826,12103,031.2,045.6,0.471,731.0,01.19,0.508
2014-09-11 03:48:00,1748E-3,5C000000,-0724,0826,12316,031.2,045.6,0.471,731.0,01.19,0.508
2014-09-11 03:49:00,1751E-3,5C000000,-0724,0826,12269,031.2,045.6,0.471,731.0,01.19,0.508
2014-09-11 03:50:00,1824E-3,5C000000,-0724,0826,12175,031.2,045.6,0.470,731.0,01.19,0.508
2014-09-11 03:51:00,1754E-3,5C000000,-0724,0826,12166,031.2,045.6,0.470,731.0,01.19,0.508
2014-09-11 03:52:00,1789E-3,5C000000,-0724,0827,12186,031.2,045.6,0.470,731.0,01.19,0.508
2014-09-11 03:53:00,1730E-3,5C000000,-0724,0826,12142,031.3,045.6,0.471,731.0,01.19,0.508
2014-09-11 03:54:00,1808E-3,5C000000,-0724,0826,12227,031.2,045.6,0.471,731.0,01.19,0.508
2014-09-11 03:55:00,1763E-3,5C000000,-0724,0826,12274,031.3,045.6,0.471,731.0,01.19,0.508
2014-09-11 03:56:00,1823E-3,5C000000,-0724,0825,12217,031.3,045.6,0.470,731.0,01.19,0.508
2014-09-11 03:57:00,1826E-3,5C000000,-0724,0826,12319,031.3,045.6,0.470,731.0,01.19,0.508
2014-09-11 03:58:00,1854E-3,5C000000,-0724,0826,12418,031.3,045.6,0.470,731.0,01.19,0.508
2014-09-11 03:59:00,1818E-3,5C000000,-0724,0827,12183,031.3,045.6,0.471,731.0,01.19,0.508
2014-09-11 04:00:00,1879E-3,5C000000,-0724,0826,12269,031.3,045.6,0.471,731.0,01.19,0.508
2014-09-11 04:01:00,1828E-3,5C000000,-0724,0826,12160,031.3,045.6,0.471,731.0,01.19,0.508
2014-09-11 04:02:00,1726E-3,5C000000,-0724,0825,12241,031.3,045.6,0.470,731.0,01.19,0.508
2014-09-11 04:03:00,1921E-3,5C000000,-0724,0826,12250,031.3,045.6,0.470,731.0,01.19,0.508
2014-09-11 04:04:00,1865E-3,5C000000,-0724,0826,12267,031.3,045.6,0.470,731.0,01.19,0.508
2014-09-11 04:05:00,1810E-3,5C000000,-0724,0826,12062,031.3,045.6,0.470,731.0,01.19,0.508
2014-09-11 04:06:00,1783E-3,5C000000,-0724,0827,12339,031.3,045.6,0.471,731.0,01.19,0.508
2014-09-11 04:07:00,1851E-3,5C000000,-0724,0826,12160,031.3,045.6,0.471,731.1,01.19,0.508
2014-09-11 04:08:00,1785E-3,5C000000,-0724,0827,12237,031.3,045.6,0.471,731.0,01.19,0.508
2014-09-11 04:09:00,1711E-3,5C000000,-0724,0825,12068,031.3,045.6,0.470,731.1,01.19,0.508
2014-09-11 04:10:00,1811E-3,5C000000,-0724,0825,12150,031.3,045.6,0.470,731.0,01.19,0.508
2014-09-11 04:11:00,1720E-3,5C000000,-0724,0826,12034,031.3,045.6,0.470,731.1,01.19,0.508
2014-09-11 04:12:00,1771E-3,5C000000,-0724,0826,12150,031.4,045.6,0.470,731.1,01.19,0.508
2014-09-11 04:13:00,1824E-3,5C000000,-0724,0826,12260,031.3,045.6,0.471,731.1,01.19,0.508
2014-09-11 04:14:00,1794E-3,5C000000,-0724,0826,12232,031.3,045.6,0.471,731.2,01.19,0.508
2014-09-11 04:15:00,1789E-3,5C000000,-0724,0826,12395,031.4,045.6,0.471,731.1,01.19,0.508
2014-09-11 04:16:00,1899E-3,5C000000,-0724,0826,12302,031.4,045.6,0.470,731.2,01.19,0.508
2014-09-11 04:17:00,1789E-3,5C000000,-0724,0826,12283,031.4,045.6,0.470,731.2,01.19,0.508
2014-09-11 04:18:00,1739E-3,5C000000,-0724,0827,12158,031.4,045.6,0.470,731.2,01.19,0.508
2014-09-11 04:19:00,1887E-3,5C000000,-0724,0826,12120,031.4,045.6,0.470,731.2,01.19,0.508
2014-09-11 04:20:00,1836E-3,5C000000,-0724,0825,12224,031.4,045.6,0.470,731.2,01.19,0.508